SXS46A EDDS-LTAI

Flight info

Callsign SXS46A
Flight time 2h 46m
Altitude 35000
Route ABTAL4H ABTAL L173 RIXED Y161 RIDAR Z98 MIQ L605 ESEGA DCT RADLY DCT BEDOX DCT LURID DCT DOBOT DCT YULHU DCT VABEK UL603 OLOTA DCT RUGAS DCT RIKSO UP14 LAVTA UN135 NESIL
Aircraft B738/M-SDE2E3FGHIRWXY/LB1

Departure

Time 2026-05-06 09:33
Airport Stuttgart Airport (EDDS)

Arrival

Time 2026-05-06 12:20
Airport Antalya International Airport (LTAI)
Time Latitude Longitude Altitude Speed Heading
2026-05-06 08:56 48.68950 9.19716 1311 ft 0 kts 344°
2026-05-06 09:22 48.68947 9.19718 1311 ft 3 kts 344°
2026-05-06 09:22 48.68922 9.19728 1309 ft 4 kts 344°
2026-05-06 09:23 48.68900 9.19738 1307 ft 4 kts 353°
2026-05-06 09:23 48.68878 9.19731 1306 ft 4 kts 51°
2026-05-06 09:23 48.68866 9.19697 1307 ft 4 kts 74°
2026-05-06 09:23 48.68859 9.19659 1308 ft 5 kts 74°
2026-05-06 09:24 48.68853 9.19627 1308 ft 2 kts 74°
2026-05-06 09:26 48.68854 9.19632 1308 ft 1 kts 74°
2026-05-06 09:26 48.68860 9.19663 1307 ft 5 kts 74°
2026-05-06 09:26 48.68874 9.19737 1306 ft 9 kts 74°
2026-05-06 09:27 48.68884 9.19848 1302 ft 12 kts 120°
2026-05-06 09:27 48.68818 9.19956 1295 ft 17 kts 93°
2026-05-06 09:27 48.68856 9.20129 1291 ft 18 kts 73°
2026-05-06 09:27 48.68894 9.20326 1287 ft 21 kts 74°
2026-05-06 09:28 48.68936 9.20549 1282 ft 23 kts 73°
2026-05-06 09:28 48.68984 9.20797 1275 ft 25 kts 74°
2026-05-06 09:28 48.69033 9.21059 1271 ft 26 kts 74°
2026-05-06 09:28 48.69082 9.21315 1263 ft 25 kts 73°
2026-05-06 09:29 48.69127 9.21555 1261 ft 23 kts 74°
2026-05-06 09:29 48.69171 9.21784 1256 ft 22 kts 73°
2026-05-06 09:29 48.69214 9.22007 1251 ft 22 kts 73°
2026-05-06 09:29 48.69254 9.22222 1248 ft 21 kts 73°
2026-05-06 09:30 48.69297 9.22448 1235 ft 24 kts 74°
2026-05-06 09:30 48.69345 9.22704 1231 ft 26 kts 74°
2026-05-06 09:30 48.69393 9.22955 1225 ft 24 kts 74°
2026-05-06 09:30 48.69437 9.23190 1221 ft 23 kts 74°
2026-05-06 09:31 48.69480 9.23415 1216 ft 22 kts 74°
2026-05-06 09:31 48.69522 9.23636 1211 ft 22 kts 74°
2026-05-06 09:31 48.69563 9.23851 1207 ft 21 kts 74°
2026-05-06 09:31 48.69602 9.24060 1202 ft 20 kts 73°
2026-05-06 09:32 48.69570 9.24262 1194 ft 22 kts 132°
2026-05-06 09:32 48.69471 9.24329 1189 ft 14 kts 164°
2026-05-06 09:32 48.69396 9.24330 1190 ft 11 kts 231°
2026-05-06 09:32 48.69369 9.24206 1192 ft 20 kts 254°
2026-05-06 09:33 48.69267 9.23674 1203 ft 85 kts 253°
2026-05-06 09:33 48.69056 9.22567 1225 ft 140 kts 254°
2026-05-06 09:33 48.68746 9.20929 1361 ft 177 kts 255°
2026-05-06 09:33 48.68443 9.19063 2011 ft 183 kts 256°
2026-05-06 09:34 48.68094 9.17193 2722 ft 189 kts 253°
2026-05-06 09:34 48.67703 9.15210 3151 ft 205 kts 253°
2026-05-06 09:34 48.67280 9.13094 3565 ft 216 kts 252°
2026-05-06 09:34 48.66799 9.10826 3805 ft 237 kts 247°
2026-05-06 09:35 48.65758 9.08864 4211 ft 250 kts 211°
2026-05-06 09:35 48.64072 9.08157 4852 ft 258 kts 179°
2026-05-06 09:35 48.62339 9.08921 5472 ft 270 kts 149°
2026-05-06 09:35 48.61031 9.10962 6197 ft 278 kts 117°
2026-05-06 09:36 48.60617 9.13814 6923 ft 281 kts 86°
2026-05-06 09:36 48.61034 9.16643 7853 ft 277 kts 76°
2026-05-06 09:36 48.61462 9.19538 8440 ft 286 kts 84°
2026-05-06 09:36 48.61685 9.22539 9089 ft 292 kts 87°
2026-05-06 09:37 48.61863 9.25625 9825 ft 295 kts 84°
2026-05-06 09:37 48.62452 9.28690 10271 ft 312 kts 72°
2026-05-06 09:37 48.62842 9.32002 10415 ft 330 kts 93°
2026-05-06 09:37 48.62723 9.35532 10596 ft 350 kts 96°
2026-05-06 09:38 48.62545 9.39297 10825 ft 367 kts 96°
2026-05-06 09:38 48.62377 9.43200 11359 ft 374 kts 96°
2026-05-06 09:38 48.62236 9.47150 12044 ft 376 kts 95°
2026-05-06 09:38 48.62119 9.51077 12723 ft 379 kts 95°
2026-05-06 09:39 48.62016 9.55101 13375 ft 383 kts 95°
2026-05-06 09:39 48.61923 9.59141 13967 ft 387 kts 95°
2026-05-06 09:39 48.61863 9.61853 14375 ft 388 kts 95°
2026-05-06 09:39 48.61775 9.65949 14985 ft 391 kts 95°
2026-05-06 09:40 48.61687 9.70076 15580 ft 394 kts 95°
2026-05-06 09:40 48.61598 9.74195 16123 ft 398 kts 95°
2026-05-06 09:40 48.61412 9.82638 17251 ft 405 kts 95°
2026-05-06 09:41 48.61282 9.88363 17994 ft 409 kts 95°
2026-05-06 09:41 48.61183 9.92608 18462 ft 412 kts 95°
2026-05-06 09:41 48.61104 9.95991 18855 ft 414 kts 95°
2026-05-06 09:42 48.61103 9.96039 18863 ft 414 kts 95°
2026-05-06 09:42 48.61027 9.99206 19211 ft 417 kts 95°
2026-05-06 09:42 48.60993 10.00634 19364 ft 418 kts 95°
2026-05-06 09:43 48.60885 10.05064 19795 ft 421 kts 95°
2026-05-06 09:43 48.60813 10.07995 20070 ft 424 kts 95°
2026-05-06 09:43 48.60701 10.12476 20533 ft 427 kts 95°
2026-05-06 09:43 48.60548 10.18470 21156 ft 430 kts 95°
2026-05-06 09:44 48.60471 10.21468 21455 ft 432 kts 96°
2026-05-06 09:44 48.60352 10.26032 21890 ft 435 kts 96°
2026-05-06 09:44 48.60231 10.30618 22330 ft 438 kts 96°
2026-05-06 09:44 48.60066 10.36725 22887 ft 441 kts 96°
2026-05-06 09:45 48.59980 10.39867 23169 ft 443 kts 96°
2026-05-06 09:45 48.59852 10.44489 23535 ft 446 kts 96°
2026-05-06 09:45 48.59719 10.49199 23786 ft 450 kts 97°
2026-05-06 09:45 48.59582 10.53967 23996 ft 456 kts 97°
2026-05-06 09:46 48.59443 10.58772 24348 ft 457 kts 97°
2026-05-06 09:46 48.59303 10.63584 24728 ft 458 kts 97°
2026-05-06 09:46 48.59161 10.68403 25044 ft 461 kts 97°
2026-05-06 09:46 48.58993 10.74000 25339 ft 465 kts 97°
2026-05-06 09:47 48.58842 10.78910 25591 ft 468 kts 97°
2026-05-06 09:47 48.58695 10.83839 25888 ft 471 kts 97°
2026-05-06 09:47 48.58561 10.88805 26168 ft 473 kts 97°
2026-05-06 09:47 48.58428 10.93803 26340 ft 478 kts 97°
2026-05-06 09:48 48.58295 10.98792 26519 ft 482 kts 97°
2026-05-06 09:48 48.58157 11.03855 26830 ft 484 kts 98°
2026-05-06 09:48 48.58014 11.08950 27127 ft 485 kts 98°
2026-05-06 09:48 48.57868 11.14069 27380 ft 488 kts 97°
2026-05-06 09:49 48.57753 11.19230 27607 ft 491 kts 97°
2026-05-06 09:49 48.57664 11.24417 27844 ft 494 kts 97°
2026-05-06 09:49 48.57582 11.29550 28124 ft 495 kts 97°
2026-05-06 09:49 48.57497 11.34741 28462 ft 495 kts 97°
2026-05-06 09:50 48.57403 11.39948 28737 ft 496 kts 97°
2026-05-06 09:50 48.57301 11.45178 29003 ft 498 kts 97°
2026-05-06 09:50 48.57196 11.50406 29384 ft 498 kts 97°
2026-05-06 09:50 48.57089 11.55647 29794 ft 497 kts 97°
2026-05-06 09:51 48.56899 11.60841 30115 ft 492 kts 103°
2026-05-06 09:51 48.56310 11.65846 30371 ft 487 kts 109°
2026-05-06 09:51 48.55559 11.70828 30645 ft 486 kts 110°
2026-05-06 09:51 48.54778 11.75797 30938 ft 485 kts 110°
2026-05-06 09:52 48.54001 11.80757 31201 ft 484 kts 110°
2026-05-06 09:52 48.53240 11.85716 31472 ft 485 kts 109°
2026-05-06 09:52 48.52502 11.90631 31730 ft 485 kts 109°
2026-05-06 09:52 48.51763 11.95615 32003 ft 484 kts 109°
2026-05-06 09:53 48.51026 12.00608 32268 ft 485 kts 109°
2026-05-06 09:53 48.50302 12.05514 32515 ft 485 kts 109°
2026-05-06 09:53 48.49565 12.10487 32776 ft 484 kts 109°
2026-05-06 09:53 48.48828 12.15437 33033 ft 484 kts 109°
2026-05-06 09:54 48.48090 12.20380 33228 ft 484 kts 109°
2026-05-06 09:54 48.47342 12.25357 33429 ft 485 kts 109°
2026-05-06 09:54 48.46608 12.30232 33670 ft 485 kts 109°
2026-05-06 09:54 48.45860 12.35187 33925 ft 484 kts 109°
2026-05-06 09:55 48.45111 12.40140 34144 ft 483 kts 109°
2026-05-06 09:55 48.44362 12.45073 34360 ft 482 kts 109°
2026-05-06 09:55 48.43608 12.50012 34586 ft 481 kts 109°
2026-05-06 09:55 48.42853 12.54882 34789 ft 481 kts 109°
2026-05-06 09:56 48.41311 12.64722 34802 ft 487 kts 109°
2026-05-06 09:56 48.39743 12.74696 34795 ft 487 kts 110°
2026-05-06 09:57 48.37666 12.84325 34805 ft 480 kts 117°
2026-05-06 09:57 48.35365 12.93698 34799 ft 480 kts 116°
2026-05-06 09:58 48.33111 13.03180 34774 ft 481 kts 116°
2026-05-06 09:58 48.30845 13.12580 34784 ft 477 kts 121°
2026-05-06 09:59 48.27314 13.20781 34800 ft 460 kts 139°
2026-05-06 09:59 48.22686 13.27134 34803 ft 452 kts 147°
2026-05-06 10:00 48.17846 13.33186 34804 ft 452 kts 147°
2026-05-06 10:00 48.13043 13.39233 34798 ft 453 kts 147°
2026-05-06 10:01 48.08214 13.45349 34808 ft 453 kts 147°
2026-05-06 10:01 48.03415 13.51432 34806 ft 454 kts 147°
2026-05-06 10:02 47.98581 13.57546 34801 ft 455 kts 147°
2026-05-06 10:02 47.93771 13.63613 34805 ft 455 kts 147°
2026-05-06 10:03 47.88920 13.69714 34784 ft 455 kts 147°
2026-05-06 10:03 47.84075 13.75793 34798 ft 454 kts 147°
2026-05-06 10:04 47.79269 13.81809 34810 ft 453 kts 147°
2026-05-06 10:04 47.74433 13.87848 34814 ft 455 kts 147°
2026-05-06 10:05 47.69556 13.93927 34817 ft 457 kts 147°
2026-05-06 10:05 47.64702 13.99952 34805 ft 458 kts 147°
2026-05-06 10:06 47.59809 14.06008 34842 ft 458 kts 147°
2026-05-06 10:06 47.54919 14.12046 34816 ft 460 kts 147°
2026-05-06 10:07 47.49995 14.18115 34863 ft 460 kts 147°
2026-05-06 10:07 47.45095 14.24143 34889 ft 458 kts 147°
2026-05-06 10:08 47.40180 14.30172 34850 ft 459 kts 147°
2026-05-06 10:08 47.35272 14.36173 34852 ft 460 kts 147°
2026-05-06 10:09 47.30350 14.42181 34873 ft 458 kts 148°
2026-05-06 10:09 47.26256 14.47166 34897 ft 460 kts 148°
2026-05-06 10:10 47.20486 14.54170 34919 ft 463 kts 148°
2026-05-06 10:10 47.16299 14.59240 34881 ft 465 kts 147°
2026-05-06 10:11 47.11318 14.65263 34912 ft 466 kts 147°
2026-05-06 10:11 47.06279 14.71337 34914 ft 468 kts 147°
2026-05-06 10:12 47.01251 14.77383 34898 ft 471 kts 147°
2026-05-06 10:12 46.96183 14.83463 34902 ft 473 kts 147°
2026-05-06 10:13 46.91067 14.89587 34883 ft 473 kts 147°
2026-05-06 10:13 46.85990 14.95648 34910 ft 474 kts 147°
2026-05-06 10:14 46.80879 15.01733 34889 ft 474 kts 147°
2026-05-06 10:14 46.75772 15.07800 34898 ft 472 kts 147°
2026-05-06 10:15 46.70685 15.13828 34905 ft 472 kts 147°
2026-05-06 10:15 46.65600 15.19840 34901 ft 471 kts 146°
2026-05-06 10:16 46.60945 15.26695 34917 ft 478 kts 136°
2026-05-06 10:16 46.56593 15.33994 34920 ft 479 kts 136°
2026-05-06 10:17 46.52201 15.41276 34914 ft 479 kts 137°
2026-05-06 10:17 46.47751 15.48523 34919 ft 478 kts 137°
2026-05-06 10:18 46.43332 15.55670 34934 ft 478 kts 137°
2026-05-06 10:18 46.38876 15.62863 34930 ft 479 kts 137°
2026-05-06 10:19 46.34432 15.70022 34927 ft 479 kts 137°
2026-05-06 10:19 46.29961 15.77210 34925 ft 479 kts 137°
2026-05-06 10:20 46.25491 15.84300 34925 ft 478 kts 139°
2026-05-06 10:20 46.20800 15.91079 34934 ft 476 kts 141°
2026-05-06 10:21 46.16035 15.97759 34949 ft 475 kts 141°
2026-05-06 10:21 46.11326 16.04392 34943 ft 476 kts 141°
2026-05-06 10:22 46.06591 16.11098 34938 ft 476 kts 140°
2026-05-06 10:22 46.01869 16.17787 34947 ft 477 kts 141°
2026-05-06 10:23 45.97153 16.24451 34946 ft 476 kts 141°
2026-05-06 10:23 45.92404 16.31143 34958 ft 477 kts 141°
2026-05-06 10:24 45.90029 16.34482 34806 ft 480 kts 141°
2026-05-06 10:24 45.87657 16.37810 34526 ft 481 kts 141°
2026-05-06 10:24 45.85255 16.41178 34289 ft 481 kts 141°
2026-05-06 10:24 45.82861 16.44532 34052 ft 482 kts 141°
2026-05-06 10:25 45.80443 16.47914 33803 ft 484 kts 141°
2026-05-06 10:25 45.78048 16.51259 33535 ft 486 kts 141°
2026-05-06 10:25 45.75620 16.54647 33256 ft 487 kts 141°
2026-05-06 10:25 45.73183 16.58045 32993 ft 487 kts 141°
2026-05-06 10:26 45.70751 16.61431 32727 ft 486 kts 141°
2026-05-06 10:26 45.68356 16.64762 32470 ft 485 kts 141°
2026-05-06 10:26 45.65932 16.68127 32187 ft 484 kts 140°
2026-05-06 10:26 45.63506 16.71491 31930 ft 484 kts 140°
2026-05-06 10:27 45.61087 16.74841 31675 ft 483 kts 140°
2026-05-06 10:27 45.58706 16.78135 31422 ft 482 kts 140°
2026-05-06 10:27 45.56294 16.81466 31175 ft 481 kts 140°
2026-05-06 10:27 45.53881 16.84794 30993 ft 482 kts 140°
2026-05-06 10:28 45.49067 16.91423 30956 ft 483 kts 140°
2026-05-06 10:28 45.44218 16.98081 30936 ft 485 kts 140°
2026-05-06 10:29 45.39334 17.04773 30950 ft 487 kts 140°
2026-05-06 10:29 45.34458 17.11437 30947 ft 488 kts 140°
2026-05-06 10:30 45.29546 17.18135 30949 ft 488 kts 140°
2026-05-06 10:30 45.24637 17.24811 30930 ft 488 kts 140°
2026-05-06 10:31 45.19762 17.31425 30950 ft 487 kts 140°
2026-05-06 10:31 45.14841 17.38086 30952 ft 487 kts 140°
2026-05-06 10:32 45.09994 17.44741 30947 ft 488 kts 139°
2026-05-06 10:32 45.05185 17.51535 30931 ft 488 kts 138°
2026-05-06 10:33 45.00405 17.58275 30954 ft 488 kts 138°
2026-05-06 10:33 44.95580 17.65030 30961 ft 488 kts 139°
2026-05-06 10:34 44.90732 17.71789 30960 ft 488 kts 139°
2026-05-06 10:34 44.85904 17.78504 30937 ft 488 kts 138°
2026-05-06 10:35 44.81086 17.85192 30960 ft 488 kts 138°
2026-05-06 10:35 44.76227 17.91916 30958 ft 488 kts 139°
2026-05-06 10:36 44.71380 17.98552 30949 ft 488 kts 139°
2026-05-06 10:36 44.66520 18.05174 30957 ft 488 kts 139°
2026-05-06 10:37 44.61643 18.11812 30961 ft 488 kts 139°
2026-05-06 10:37 44.56746 18.18466 30963 ft 488 kts 139°
2026-05-06 10:38 44.51882 18.25059 30962 ft 488 kts 139°
2026-05-06 10:38 44.47008 18.31651 30951 ft 488 kts 139°
2026-05-06 10:39 44.42115 18.38253 30967 ft 488 kts 138°
2026-05-06 10:39 44.37207 18.44859 30969 ft 488 kts 139°
2026-05-06 10:40 44.32334 18.51404 30971 ft 488 kts 139°
2026-05-06 10:40 44.27582 18.58229 30975 ft 490 kts 133°
2026-05-06 10:41 44.23217 18.65515 30963 ft 490 kts 131°
2026-05-06 10:41 44.18906 18.72821 30974 ft 490 kts 131°
2026-05-06 10:42 44.14528 18.80114 30968 ft 490 kts 132°
2026-05-06 10:42 44.10118 18.87368 30972 ft 489 kts 133°
2026-05-06 10:43 44.05740 18.94532 30972 ft 488 kts 133°
2026-05-06 10:44 43.99130 19.05321 30979 ft 487 kts 133°
2026-05-06 10:44 43.94730 19.12486 30954 ft 486 kts 133°
2026-05-06 10:45 43.90359 19.19586 30970 ft 485 kts 133°
2026-05-06 10:45 43.85959 19.26713 30984 ft 486 kts 133°
2026-05-06 10:46 43.81572 19.33802 30989 ft 488 kts 133°
2026-05-06 10:46 43.77155 19.40923 30983 ft 490 kts 133°
2026-05-06 10:47 43.72698 19.48091 30989 ft 492 kts 133°
2026-05-06 10:47 43.68221 19.55272 30981 ft 493 kts 133°
2026-05-06 10:48 43.63755 19.62420 30994 ft 493 kts 133°
2026-05-06 10:48 43.59281 19.69562 30976 ft 493 kts 133°
2026-05-06 10:49 43.54776 19.76735 30995 ft 494 kts 133°
2026-05-06 10:49 43.50264 19.83901 31000 ft 494 kts 133°
2026-05-06 10:50 43.45770 19.91020 30991 ft 494 kts 133°
2026-05-06 10:50 43.41249 19.98165 30999 ft 494 kts 133°
2026-05-06 10:51 43.36714 20.05314 31005 ft 495 kts 134°
2026-05-06 10:51 43.32198 20.12416 31011 ft 496 kts 134°
2026-05-06 10:52 43.27645 20.19559 31002 ft 496 kts 134°
2026-05-06 10:52 43.23116 20.26647 31004 ft 496 kts 133°
2026-05-06 10:53 43.18553 20.33771 31022 ft 496 kts 133°
2026-05-06 10:53 43.13981 20.40891 31016 ft 498 kts 133°
2026-05-06 10:54 43.09392 20.48022 31011 ft 498 kts 133°
2026-05-06 10:54 43.04834 20.55087 31028 ft 498 kts 133°
2026-05-06 10:55 43.00232 20.62192 31034 ft 499 kts 134°
2026-05-06 10:55 42.95321 20.68918 31035 ft 499 kts 139°
2026-05-06 10:56 42.91093 20.74307 31037 ft 499 kts 139°
2026-05-06 10:56 42.86030 20.80771 31046 ft 500 kts 139°
2026-05-06 10:57 42.80156 20.88374 31054 ft 500 kts 138°
2026-05-06 10:57 42.75960 20.93828 31060 ft 500 kts 138°
2026-05-06 10:58 42.70918 21.00368 31072 ft 500 kts 138°
2026-05-06 10:58 42.65910 21.06843 31080 ft 500 kts 138°
2026-05-06 10:59 42.60863 21.13351 31066 ft 500 kts 138°
2026-05-06 10:59 42.55802 21.19861 31077 ft 501 kts 138°
2026-05-06 11:00 42.53145 21.23272 31070 ft 501 kts 138°
2026-05-06 11:00 42.48112 21.29725 31072 ft 502 kts 138°
2026-05-06 11:01 42.43015 21.36243 31057 ft 503 kts 138°
2026-05-06 11:01 42.37913 21.42754 31053 ft 503 kts 138°
2026-05-06 11:02 42.32818 21.49239 31047 ft 503 kts 138°
2026-05-06 11:02 42.27719 21.55717 31049 ft 502 kts 138°
2026-05-06 11:03 42.24183 21.60201 31041 ft 502 kts 138°
2026-05-06 11:03 42.20258 21.65240 31047 ft 502 kts 137°
2026-05-06 11:04 42.15309 21.71822 31053 ft 502 kts 136°
2026-05-06 11:04 42.10335 21.78466 31035 ft 503 kts 137°
2026-05-06 11:05 42.05372 21.85046 31053 ft 503 kts 136°
2026-05-06 11:05 42.00364 21.91648 31053 ft 504 kts 137°
2026-05-06 11:06 41.95335 21.98257 31050 ft 505 kts 137°
2026-05-06 11:06 41.90320 22.04833 31048 ft 505 kts 137°
2026-05-06 11:07 41.85295 22.11410 31051 ft 506 kts 137°
2026-05-06 11:07 41.80241 22.18009 31043 ft 506 kts 137°
2026-05-06 11:08 41.75224 22.24545 31061 ft 506 kts 137°
2026-05-06 11:08 41.70181 22.31099 31053 ft 507 kts 137°
2026-05-06 11:09 41.65091 22.37700 31050 ft 507 kts 137°
2026-05-06 11:09 41.60040 22.44235 31054 ft 507 kts 137°
2026-05-06 11:10 41.54942 22.50815 31049 ft 508 kts 136°
2026-05-06 11:10 41.49865 22.57354 31055 ft 508 kts 137°
2026-05-06 11:11 41.44789 22.63876 31056 ft 508 kts 137°
2026-05-06 11:11 41.39673 22.70436 31054 ft 509 kts 137°
2026-05-06 11:12 41.34569 22.76966 31062 ft 509 kts 137°
2026-05-06 11:12 41.34469 22.77094 31062 ft 509 kts 137°
2026-05-06 11:13 41.32046 22.80264 31055 ft 510 kts 134°
2026-05-06 11:13 41.27350 22.87354 31067 ft 509 kts 130°
2026-05-06 11:14 41.22824 22.94527 31058 ft 510 kts 130°
2026-05-06 11:14 41.18226 23.01735 31057 ft 511 kts 130°
2026-05-06 11:15 41.14835 23.06976 31052 ft 511 kts 131°
2026-05-06 11:15 41.10186 23.14104 31055 ft 511 kts 130°
2026-05-06 11:16 41.05524 23.21229 31054 ft 511 kts 130°
2026-05-06 11:16 41.00861 23.28343 31041 ft 512 kts 131°
2026-05-06 11:17 40.96195 23.35450 31051 ft 511 kts 131°
2026-05-06 11:17 40.91553 23.42505 31053 ft 512 kts 131°
2026-05-06 11:18 40.86874 23.49599 31049 ft 512 kts 130°
2026-05-06 11:18 40.82182 23.56696 31053 ft 513 kts 130°
2026-05-06 11:19 40.77475 23.63799 31065 ft 513 kts 130°
2026-05-06 11:19 40.72771 23.70880 31060 ft 513 kts 130°
2026-05-06 11:20 40.68075 23.77933 31076 ft 513 kts 130°
2026-05-06 11:20 40.63335 23.85037 31074 ft 514 kts 130°
2026-05-06 11:21 40.58632 23.92067 31075 ft 514 kts 130°
2026-05-06 11:21 40.53887 23.99144 31077 ft 515 kts 130°
2026-05-06 11:22 40.49168 24.06166 31079 ft 515 kts 130°
2026-05-06 11:22 40.44408 24.13232 31080 ft 516 kts 130°
2026-05-06 11:23 40.39634 24.20304 31072 ft 517 kts 130°
2026-05-06 11:23 40.34874 24.27339 31080 ft 517 kts 130°
2026-05-06 11:24 40.30088 24.34395 31078 ft 517 kts 130°
2026-05-06 11:24 40.25300 24.41437 31092 ft 518 kts 130°
2026-05-06 11:25 40.20521 24.48451 31084 ft 518 kts 130°
2026-05-06 11:25 40.15704 24.55503 31082 ft 519 kts 130°
2026-05-06 11:26 40.10906 24.62513 31083 ft 519 kts 130°
2026-05-06 11:26 40.06076 24.69552 31088 ft 519 kts 130°
2026-05-06 11:27 40.01275 24.76533 31086 ft 519 kts 131°
2026-05-06 11:27 39.96441 24.83547 31082 ft 519 kts 131°
2026-05-06 11:28 39.91603 24.90550 31081 ft 519 kts 131°
2026-05-06 11:28 39.86779 24.97517 31081 ft 519 kts 131°
2026-05-06 11:29 39.81934 25.04497 31089 ft 520 kts 130°
2026-05-06 11:29 39.77088 25.11466 31078 ft 520 kts 131°
2026-05-06 11:30 39.72223 25.18443 31083 ft 520 kts 131°
2026-05-06 11:30 39.67349 25.25419 31086 ft 521 kts 131°
2026-05-06 11:31 39.62492 25.32354 31095 ft 521 kts 131°
2026-05-06 11:31 39.57601 25.39322 31097 ft 522 kts 130°
2026-05-06 11:32 39.52687 25.46307 31094 ft 523 kts 131°
2026-05-06 11:32 39.47804 25.53233 31085 ft 523 kts 131°
2026-05-06 11:33 39.42892 25.60184 31094 ft 523 kts 131°
2026-05-06 11:33 39.37997 25.67095 31106 ft 524 kts 131°
2026-05-06 11:34 39.33067 25.74041 31096 ft 524 kts 131°
2026-05-06 11:34 39.28126 25.80985 31095 ft 524 kts 131°
2026-05-06 11:35 39.23182 25.87919 31100 ft 524 kts 131°
2026-05-06 11:35 39.18268 25.94795 31074 ft 524 kts 131°
2026-05-06 11:36 39.13298 26.01734 31105 ft 524 kts 131°
2026-05-06 11:36 39.08369 26.08603 31092 ft 525 kts 131°
2026-05-06 11:37 39.03410 26.15495 31088 ft 525 kts 131°
2026-05-06 11:37 38.98436 26.22394 31090 ft 525 kts 131°
2026-05-06 11:38 38.93473 26.29264 31097 ft 524 kts 131°
2026-05-06 11:38 38.89493 26.34764 31089 ft 523 kts 131°
2026-05-06 11:39 38.86880 26.38428 31067 ft 522 kts 127°
2026-05-06 11:39 38.84811 26.42238 31080 ft 517 kts 116°
2026-05-06 11:40 38.83280 26.46381 31085 ft 512 kts 107°
2026-05-06 11:40 38.82242 26.50735 31077 ft 506 kts 96°
2026-05-06 11:40 38.81697 26.55137 31099 ft 503 kts 93°
2026-05-06 11:41 38.80722 26.64041 31085 ft 504 kts 94°
2026-05-06 11:41 38.79665 26.72937 31088 ft 504 kts 94°
2026-05-06 11:42 38.78560 26.81784 31074 ft 504 kts 95°
2026-05-06 11:42 38.77437 26.90635 31075 ft 504 kts 97°
2026-05-06 11:43 38.75059 26.99129 31069 ft 511 kts 116°
2026-05-06 11:43 38.71712 27.05410 31090 ft 514 kts 126°
2026-05-06 11:44 38.64410 27.17470 31096 ft 513 kts 125°
2026-05-06 11:44 38.60821 27.23525 31061 ft 515 kts 125°
2026-05-06 11:45 38.56483 27.30875 31062 ft 514 kts 125°
2026-05-06 11:45 38.52190 27.38123 31067 ft 514 kts 125°
2026-05-06 11:46 38.47865 27.45395 31056 ft 514 kts 125°
2026-05-06 11:46 38.43537 27.52653 31076 ft 514 kts 126°
2026-05-06 11:47 38.39211 27.59898 31078 ft 513 kts 126°
2026-05-06 11:47 38.34879 27.67138 31055 ft 513 kts 126°
2026-05-06 11:48 38.30547 27.74362 31069 ft 513 kts 126°
2026-05-06 11:48 38.26213 27.81574 31070 ft 513 kts 126°
2026-05-06 11:49 38.21872 27.88787 31066 ft 514 kts 126°
2026-05-06 11:49 38.17522 27.96003 31074 ft 514 kts 126°
2026-05-06 11:50 38.13170 28.03212 31076 ft 514 kts 126°
2026-05-06 11:50 38.08829 28.10384 31093 ft 515 kts 126°
2026-05-06 11:51 38.04444 28.17615 31075 ft 515 kts 126°
2026-05-06 11:51 38.00090 28.24776 31064 ft 514 kts 126°
2026-05-06 11:52 37.95735 28.31926 31068 ft 513 kts 126°
2026-05-06 11:52 37.91369 28.39078 31097 ft 513 kts 126°
2026-05-06 11:53 37.86989 28.46237 31090 ft 513 kts 126°
2026-05-06 11:53 37.82623 28.53357 31081 ft 514 kts 126°
2026-05-06 11:54 37.78231 28.60506 31092 ft 514 kts 127°
2026-05-06 11:54 37.73860 28.67607 31100 ft 514 kts 126°
2026-05-06 11:55 37.70203 28.75306 31097 ft 509 kts 112°
2026-05-06 11:55 37.67335 28.83462 31091 ft 510 kts 111°
2026-05-06 11:56 37.64433 28.91659 31091 ft 510 kts 112°
2026-05-06 11:56 37.62973 28.95697 31079 ft 497 kts 112°
2026-05-06 11:56 37.61549 28.99594 31040 ft 483 kts 112°
2026-05-06 11:57 37.60169 29.03358 30766 ft 475 kts 112°
2026-05-06 11:57 37.58780 29.07146 30106 ft 476 kts 112°
2026-05-06 11:57 37.57369 29.11000 28812 ft 490 kts 112°
2026-05-06 11:57 37.55929 29.14932 27907 ft 494 kts 112°
2026-05-06 11:58 37.54487 29.18857 27346 ft 490 kts 112°
2026-05-06 11:58 37.53079 29.22678 26901 ft 484 kts 112°
2026-05-06 11:58 37.51669 29.26502 26439 ft 478 kts 112°
2026-05-06 11:58 37.50270 29.30297 25911 ft 474 kts 112°
2026-05-06 11:59 37.48880 29.34065 25316 ft 472 kts 112°
2026-05-06 11:59 37.47498 29.37807 24751 ft 470 kts 112°
2026-05-06 11:59 37.46121 29.41528 24247 ft 466 kts 112°
2026-05-06 11:59 37.44754 29.45207 23777 ft 463 kts 112°
2026-05-06 12:00 37.43398 29.48833 23241 ft 459 kts 112°
2026-05-06 12:00 37.42039 29.52456 22706 ft 455 kts 112°
2026-05-06 12:00 37.40691 29.56046 22197 ft 450 kts 112°
2026-05-06 12:00 37.39369 29.59571 21767 ft 444 kts 112°
2026-05-06 12:01 37.38055 29.63081 21281 ft 440 kts 112°
2026-05-06 12:01 37.36758 29.66550 20764 ft 436 kts 112°
2026-05-06 12:01 37.35467 29.69999 20252 ft 434 kts 112°
2026-05-06 12:01 37.34208 29.73368 19776 ft 430 kts 112°
2026-05-06 12:02 37.32938 29.76765 19312 ft 426 kts 112°
2026-05-06 12:02 37.31683 29.80128 18841 ft 423 kts 112°
2026-05-06 12:02 37.30442 29.83463 18368 ft 420 kts 112°
2026-05-06 12:02 37.29212 29.86789 17923 ft 416 kts 112°
2026-05-06 12:03 37.28006 29.90072 17447 ft 411 kts 112°
2026-05-06 12:03 37.26830 29.93282 16977 ft 408 kts 112°
2026-05-06 12:03 37.25647 29.96516 16528 ft 403 kts 112°
2026-05-06 12:03 37.24480 29.99710 16050 ft 401 kts 112°
2026-05-06 12:04 37.23321 30.02880 15596 ft 397 kts 112°
2026-05-06 12:04 37.22185 30.05982 15164 ft 393 kts 112°
2026-05-06 12:04 37.21046 30.09093 14719 ft 391 kts 112°
2026-05-06 12:04 37.19914 30.12186 14290 ft 387 kts 112°
2026-05-06 12:05 37.18791 30.15249 13850 ft 384 kts 112°
2026-05-06 12:05 37.17675 30.18292 13338 ft 382 kts 112°
2026-05-06 12:05 37.16576 30.21294 12932 ft 377 kts 112°
2026-05-06 12:05 37.15490 30.24268 12520 ft 372 kts 112°
2026-05-06 12:06 37.14443 30.27149 12259 ft 364 kts 112°
2026-05-06 12:06 37.13474 30.30051 11986 ft 356 kts 109°
2026-05-06 12:06 37.12594 30.32935 11720 ft 348 kts 109°
2026-05-06 12:06 37.11752 30.35761 11471 ft 342 kts 109°
2026-05-06 12:07 37.10974 30.38537 11216 ft 335 kts 106°
2026-05-06 12:07 37.10277 30.41276 10960 ft 330 kts 106°
2026-05-06 12:07 37.09601 30.43999 10707 ft 325 kts 105°
2026-05-06 12:07 37.09019 30.46713 10466 ft 319 kts 98°
2026-05-06 12:08 37.08683 30.49400 10243 ft 314 kts 96°
2026-05-06 12:08 37.08392 30.52108 9990 ft 310 kts 96°
2026-05-06 12:08 37.08120 30.54770 9717 ft 306 kts 96°
2026-05-06 12:08 37.07907 30.57395 9500 ft 299 kts 94°
2026-05-06 12:09 37.07891 30.59958 9188 ft 293 kts 75°
2026-05-06 12:09 37.08635 30.62289 8907 ft 287 kts 63°
2026-05-06 12:09 37.09480 30.64513 8639 ft 284 kts 62°
2026-05-06 12:09 37.10351 30.66776 8305 ft 284 kts 62°
2026-05-06 12:10 37.11199 30.68975 8015 ft 283 kts 62°
2026-05-06 12:10 37.12065 30.71191 7762 ft 281 kts 62°
2026-05-06 12:10 37.12945 30.73382 7499 ft 280 kts 61°
2026-05-06 12:10 37.13813 30.75538 7207 ft 279 kts 62°
2026-05-06 12:11 37.14695 30.77701 6944 ft 277 kts 59°
2026-05-06 12:11 37.15923 30.79522 6639 ft 273 kts 32°
2026-05-06 12:11 37.17626 30.80402 6594 ft 259 kts 12°
2026-05-06 12:11 37.19353 30.80767 6517 ft 249 kts
2026-05-06 12:12 37.21048 30.80852 6469 ft 238 kts
2026-05-06 12:12 37.22504 30.81704 6374 ft 228 kts 41°
2026-05-06 12:12 37.23297 30.83335 6283 ft 217 kts 76°
2026-05-06 12:12 37.23220 30.85167 6080 ft 210 kts 112°
2026-05-06 12:13 37.22345 30.86564 5763 ft 207 kts 148°
2026-05-06 12:13 37.20991 30.87032 5498 ft 203 kts 186°
2026-05-06 12:13 37.19686 30.86430 5269 ft 200 kts 213°
2026-05-06 12:13 37.18516 30.85457 5032 ft 204 kts 215°
2026-05-06 12:14 37.17238 30.84723 4759 ft 204 kts 187°
2026-05-06 12:14 37.15851 30.84634 4566 ft 200 kts 186°
2026-05-06 12:14 37.14476 30.84412 4349 ft 197 kts 188°
2026-05-06 12:14 37.13148 30.84195 4191 ft 188 kts 187°
2026-05-06 12:15 37.11860 30.84004 4129 ft 184 kts 186°
2026-05-06 12:15 37.10563 30.83820 3955 ft 190 kts 186°
2026-05-06 12:15 37.09268 30.83641 3733 ft 189 kts 186°
2026-05-06 12:15 37.07974 30.83463 3484 ft 185 kts 186°
2026-05-06 12:16 37.06698 30.83287 3227 ft 183 kts 185°
2026-05-06 12:16 37.05466 30.83117 3007 ft 173 kts 185°
2026-05-06 12:16 37.04299 30.82956 2796 ft 162 kts 184°
2026-05-06 12:16 37.03215 30.82807 2561 ft 156 kts 184°
2026-05-06 12:17 37.02147 30.82661 2380 ft 154 kts 184°
2026-05-06 12:17 37.01083 30.82514 2160 ft 151 kts 184°
2026-05-06 12:17 37.00054 30.82373 1964 ft 150 kts 184°
2026-05-06 12:17 36.99016 30.82231 1778 ft 149 kts 183°
2026-05-06 12:18 36.97983 30.82093 1563 ft 149 kts 183°
2026-05-06 12:18 36.96951 30.81959 1353 ft 149 kts 185°
2026-05-06 12:18 36.95918 30.81811 1221 ft 149 kts 186°
2026-05-06 12:18 36.94864 30.81663 1003 ft 154 kts 185°
2026-05-06 12:19 36.93815 30.81515 787 ft 153 kts 187°
2026-05-06 12:19 36.92775 30.81375 507 ft 147 kts 186°
2026-05-06 12:19 36.91772 30.81232 327 ft 144 kts 187°
2026-05-06 12:19 36.90789 30.81097 200 ft 135 kts 185°
2026-05-06 12:20 36.89984 30.80988 203 ft 88 kts 186°
2026-05-06 12:20 36.89533 30.80925 192 ft 44 kts 187°
2026-05-06 12:20 36.89321 30.80855 188 ft 25 kts 207°
2026-05-06 12:20 36.89205 30.80759 198 ft 8 kts 216°
2026-05-06 12:21 36.89164 30.80722 194 ft 7 kts 216°
2026-05-06 12:21 36.89126 30.80682 199 ft 7 kts 234°
2026-05-06 12:21 36.89136 30.80631 200 ft 7 kts 329°
2026-05-06 12:21 36.89185 30.80633 198 ft 8 kts
2026-05-06 12:22 36.89262 30.80649 196 ft 15 kts
2026-05-06 12:22 36.89391 30.80666 197 ft 22 kts
2026-05-06 12:22 36.89548 30.80688 197 ft 22 kts
2026-05-06 12:22 36.89701 30.80710 197 ft 22 kts
2026-05-06 12:23 36.89849 30.80729 196 ft 21 kts
2026-05-06 12:23 36.89994 30.80750 202 ft 21 kts
2026-05-06 12:23 36.90135 30.80769 194 ft 20 kts
2026-05-06 12:23 36.90215 30.80750 191 ft 11 kts 305°
2026-05-06 12:24 36.90187 30.80670 193 ft 11 kts 208°
2026-05-06 12:24 36.90111 30.80656 192 ft 11 kts 186°
2026-05-06 12:24 36.90035 30.80645 191 ft 12 kts 186°
2026-05-06 12:24 36.89938 30.80633 193 ft 17 kts 186°
2026-05-06 12:25 36.89830 30.80571 191 ft 20 kts 242°
2026-05-06 12:25 36.89818 30.80411 191 ft 17 kts 276°
2026-05-06 12:25 36.89814 30.80319 195 ft 9 kts 256°
2026-05-06 12:25 36.89822 30.80246 196 ft 4 kts 292°